Total_Precipitation_Accumulation
0.53 0.31 0.58 0.63 0.53 0.47 0.53 0.60 0.61 0.62 0.68 0.74 0.69 0.64 0.60 0.44 0.36 0.30 0.27 0.26 0.32 0.42 0.41 0.37 0.34 0.30 0.22 0.20 0.25 0.32 0.39 0.48 0.53 0.56 0.64 0.68 0.65 0.68 0.82 0.99 1.07 1.30 0.87
0.51 0.37 0.61 0.67 0.55 0.48 0.49 0.52 0.57 0.57 0.60 0.64 0.66 0.67 0.54 0.40 0.35 0.31 0.27 0.26 0.28 0.32 0.33 0.37 0.39 0.34 0.27 0.28 0.33 0.37 0.40 0.45 0.56 0.60 0.75 0.79 0.70 0.71 0.68 0.78 0.95 1.10 0.81
0.51 0.42 0.51 0.61 0.53 0.48 0.48 0.52 0.58 0.60 0.62 0.65 0.69 0.73 0.53 0.40 0.36 0.33 0.33 0.32 0.31 0.27 0.28 0.36 0.42 0.40 0.33 0.35 0.40 0.42 0.44 0.48 0.57 0.65 1.01 1.48 1.01 0.75 0.74 0.79 0.82 0.73 0.76
0.60 0.55 0.61 0.74 0.64 0.54 0.52 0.61 0.69 0.75 0.78 0.84 0.82 0.70 0.49 0.43 0.43 0.42 0.43 0.43 0.37 0.29 0.29 0.32 0.38 0.38 0.34 0.37 0.41 0.40 0.47 0.53 0.63 0.74 1.09 1.51 1.38 1.03 0.92 0.90 0.83 0.68 0.76
0.60 0.65 0.81 0.88 0.76 0.67 0.64 0.70 0.82 0.91 0.90 0.92 0.86 0.64 0.52 0.50 0.52 0.52 0.55 0.48 0.39 0.35 0.32 0.32 0.35 0.33 0.32 0.33 0.37 0.40 0.47 0.59 0.77 0.84 1.13 1.45 1.61 1.13 0.90 0.99 0.98 0.81 0.85
0.53 0.55 0.70 0.84 0.76 0.72 0.74 0.80 0.82 0.78 0.79 0.88 0.80 0.63 0.52 0.57 0.58 0.58 0.53 0.45 0.43 0.43 0.39 0.38 0.37 0.35 0.36 0.33 0.37 0.42 0.50 0.63 0.74 0.92 1.13 1.48 1.54 1.04 0.84 0.96 1.03 0.98 0.94
0.59 0.51 0.60 0.72 0.69 0.68 0.75 0.83 0.85 0.77 0.80 0.84 0.81 0.74 0.57 0.56 0.60 0.62 0.54 0.46 0.44 0.45 0.44 0.43 0.40 0.37 0.34 0.34 0.36 0.40 0.50 0.50 0.65 0.89 1.08 1.44 1.22 0.82 0.71 0.86 1.09 1.18 1.08
0.66 0.60 0.56 0.65 0.64 0.63 0.68 0.76 0.81 0.79 0.87 0.86 0.75 0.69 0.65 0.57 0.58 0.58 0.54 0.54 0.51 0.49 0.48 0.46 0.40 0.37 0.37 0.37 0.37 0.39 0.45 0.40 0.42 0.65 0.86 1.18 1.07 0.90 0.68 0.72 0.93 1.09 1.14
0.73 0.70 0.64 0.64 0.64 0.68 0.77 0.77 0.80 0.87 0.98 0.95 0.77 0.70 0.71 0.60 0.53 0.51 0.52 0.54 0.53 0.54 0.57 0.51 0.42 0.36 0.39 0.41 0.40 0.39 0.41 0.42 0.44 0.56 0.67 0.92 0.94 0.93 0.69 0.67 0.82 0.95 1.11
0.70 0.67 0.60 0.60 0.64 0.69 0.79 0.83 0.84 0.84 0.93 0.92 0.81 0.80 0.79 0.64 0.54 0.54 0.53 0.56 0.58 0.60 0.65 0.60 0.50 0.44 0.43 0.44 0.43 0.40 0.40 0.37 0.41 0.46 0.61 0.66 0.83 0.84 0.65 0.60 0.68 0.77 0.84
0.63 0.63 0.60 0.58 0.61 0.67 0.77 0.79 0.89 0.92 0.95 0.88 0.82 0.85 0.77 0.56 0.53 0.56 0.50 0.62 0.71 0.82 0.82 0.75 0.65 0.56 0.49 0.42 0.40 0.40 0.32 0.28 0.42 0.45 0.54 0.64 0.81 0.79 0.64 0.59 0.62 0.61 0.61
0.65 0.66 0.63 0.66 0.65 0.64 0.69 0.93 1.10 0.98 0.89 0.78 0.80 0.78 0.76 0.73 0.70 0.52 0.53 0.68 0.74 0.82 0.83 0.78 0.74 0.59 0.41 0.30 0.35 0.37 0.23 0.26 0.36 0.38 0.41 0.63 0.82 0.83 0.72 0.61 0.56 0.53 0.50
0.66 0.67 0.62 0.60 0.54 0.55 0.69 0.87 1.06 1.11 1.07 1.04 0.90 0.89 0.85 0.76 0.65 0.51 0.49 0.54 0.59 0.68 0.65 0.69 0.67 0.46 0.36 0.35 0.38 0.31 0.26 0.29 0.34 0.38 0.47 0.73 0.88 0.84 0.78 0.67 0.59 0.53 0.50
0.57 0.60 0.56 0.54 0.51 0.49 0.50 0.61 0.76 0.83 0.82 0.84 0.85 0.79 0.80 0.81 0.74 0.64 0.58 0.62 0.64 0.63 0.68 0.73 0.69 0.55 0.45 0.38 0.37 0.37 0.35 0.33 0.38 0.48 0.55 0.74 0.93 0.93 0.90 0.79 0.71 0.61 0.55
0.51 0.53 0.55 0.58 0.55 0.61 0.60 0.57 0.56 0.62 0.67 0.72 0.80 0.72 0.67 0.70 0.73 0.75 0.69 0.73 0.69 0.68 0.70 0.71 0.59 0.56 0.54 0.44 0.41 0.43 0.46 0.40 0.46 0.49 0.56 0.69 0.97 1.22 1.18 1.05 0.92 0.76 0.68
0.47 0.57 0.62 0.58 0.61 0.60 0.56 0.59 0.62 0.62 0.66 0.69 0.73 0.66 0.60 0.60 0.62 0.74 0.72 0.77 0.69 0.71 0.79 0.71 0.64 0.65 0.64 0.54 0.44 0.45 0.47 0.42 0.47 0.53 0.58 0.71 0.87 1.20 1.43 1.35 1.24 1.06 0.85
0.43 0.57 0.68 0.66 0.69 0.65 0.60 0.63 0.66 0.66 0.63 0.65 0.69 0.62 0.58 0.61 0.62 0.74 0.78 0.77 0.74 0.77 0.81 0.83 0.82 0.77 0.68 0.59 0.51 0.48 0.46 0.46 0.50 0.53 0.55 0.70 0.70 0.76 1.09 1.40 1.48 1.40 1.13
0.40 0.51 0.63 0.65 0.70 0.73 0.72 0.72 0.69 0.65 0.66 0.72 0.75 0.70 0.66 0.64 0.67 0.87 0.92 0.80 0.85 0.95 0.99 1.00 0.96 0.87 0.77 0.72 0.71 0.61 0.52 0.49 0.52 0.56 0.56 0.59 0.56 0.49 0.57 0.73 0.89 1.08 1.25
0.41 0.47 0.52 0.58 0.78 0.81 0.77 0.83 0.83 0.80 0.86 0.89 0.92 0.89 0.84 0.81 0.89 1.06 1.13 1.04 1.01 1.15 1.12 1.01 1.01 1.01 0.91 0.88 0.87 0.83 0.67 0.57 0.56 0.55 0.61 0.69 0.66 0.57 0.57 0.50 0.54 0.64 0.91
0.34 0.39 0.46 0.55 0.67 0.79 0.94 1.02 1.10 1.11 1.11 1.23 1.30 1.29 1.12 1.07 1.13 1.28 1.37 1.33 1.29 1.39 1.38 1.25 1.31 1.30 1.18 1.21 1.11 0.98 0.85 0.78 0.74 0.70 0.69 0.75 0.77 0.67 0.65 0.54 0.50 0.44 0.56
0.25 0.31 0.37 0.54 0.70 0.86 0.98 1.13 1.38 1.54 1.64 1.63 1.63 1.70 1.62 1.43 1.52 1.63 1.59 1.80 1.87 1.84 1.83 1.76 1.86 1.87 1.59 1.43 1.65 1.60 1.19 0.91 0.81 0.82 0.82 0.81 0.81 0.78 0.76 0.71 0.59 0.48 0.41
0.16 0.22 0.30 0.44 0.67 0.92 1.15 1.33 1.52 1.84 2.00 2.00 2.06 2.01 1.96 1.84 1.86 1.79 1.86 2.06 2.11 2.20 2.28 2.12 2.22 2.27 1.95 1.65 1.99 2.35 1.85 1.44 0.91 0.72 0.79 0.85 0.90 0.88 0.84 0.74 0.69 0.61 0.49
0.09 0.14 0.21 0.34 0.57 0.88 1.19 1.45 1.64 1.88 2.14 2.24 2.15 2.10 2.13 2.21 2.26 2.14 2.09 2.22 2.23 2.29 2.45 2.48 2.42 2.46 2.35 2.06 2.03 2.41 2.22 1.88 1.48 0.92 0.80 0.86 0.96 0.99 0.99 0.97 0.87 0.78 0.65
0.10 0.13 0.17 0.32 0.48 0.72 0.99 1.32 1.57 1.84 2.15 2.22 2.20 2.17 2.21 2.33 2.42 2.37 2.31 2.38 2.37 2.32 2.41 2.48 2.47 2.64 2.78 2.49 2.26 2.03 1.90 1.89 1.86 1.42 1.00 0.91 1.02 1.08 1.11 1.01 0.99 0.98 0.92
0.15 0.18 0.24 0.38 0.53 0.74 0.98 1.30 1.63 1.82 1.99 2.19 2.20 2.11 2.05 2.11 2.13 2.11 2.22 2.37 2.37 2.34 2.35 2.51 2.63 2.79 2.74 2.64 2.49 2.34 2.15 1.95 1.60 1.63 1.50 1.24 1.17 1.07 1.13 1.21 1.16 1.16 1.11
0.24 0.30 0.38 0.50 0.72 0.87 0.97 1.12 1.29 1.50 1.78 1.92 2.02 2.06 2.07 2.06 1.94 1.86 1.95 2.05 2.13 2.18 2.17 2.21 2.36 2.50 2.65 2.77 2.68 2.50 2.36 2.21 2.01 1.87 1.58 1.43 1.47 1.30 1.18 1.17 1.20 1.22 1.27